GLD1774 MKJP-MUCU

Flight info

Callsign GLD1774
Flight time 1h 19m
Altitude 7000
Route MLY DCT UCU
Aircraft C172/L-SDFGIRY/S

Departure

Time 2026-04-26 21:24
Airport Norman Manley International Airport (MKJP)

Arrival

Time 2026-04-26 22:43
Airport Antonio Maceo International Airport (MUCU)
Time Latitude Longitude Altitude Speed Heading
2026-04-26 21:11 17.93454 -76.77629 14 ft 0 kts 127°
2026-04-26 21:19 17.93464 -76.77606 14 ft 8 kts 22°
2026-04-26 21:19 17.93496 -76.77665 14 ft 8 kts 238°
2026-04-26 21:20 17.93504 -76.77685 14 ft 14 kts 257°
2026-04-26 21:20 17.93409 -76.77748 14 ft 20 kts 175°
2026-04-26 21:20 17.93321 -76.77653 14 ft 11 kts 153°
2026-04-26 21:20 17.93287 -76.77657 15 ft 0 kts 218°
2026-04-26 21:22 17.93269 -76.77714 15 ft 18 kts 263°
2026-04-26 21:22 17.93230 -76.77880 15 ft 41 kts 291°
2026-04-26 21:22 17.93395 -76.78304 14 ft 82 kts 290°
2026-04-26 21:23 17.93935 -76.79706 144 ft 110 kts 294°
2026-04-26 21:23 17.94307 -76.80420 261 ft 111 kts 304°
2026-04-26 21:23 17.94769 -76.81037 389 ft 105 kts 302°
2026-04-26 21:23 17.95208 -76.81637 504 ft 104 kts 331°
2026-04-26 21:24 17.95871 -76.81574 656 ft 99 kts 29°
2026-04-26 21:24 17.96399 -76.81160 791 ft 97 kts 77°
2026-04-26 21:24 17.96392 -76.80474 948 ft 94 kts 93°
2026-04-26 21:24 17.96363 -76.79779 1093 ft 96 kts 95°
2026-04-26 21:25 17.96324 -76.79073 1243 ft 98 kts 96°
2026-04-26 21:25 17.96284 -76.78357 1391 ft 98 kts 96°
2026-04-26 21:25 17.96258 -76.77635 1540 ft 99 kts 90°
2026-04-26 21:25 17.96682 -76.77095 1675 ft 106 kts 18°
2026-04-26 21:26 17.97400 -76.76895 1854 ft 106 kts 18°
2026-04-26 21:26 17.98110 -76.76694 2036 ft 105 kts 18°
2026-04-26 21:26 17.98799 -76.76495 2180 ft 101 kts 17°
2026-04-26 21:26 17.99466 -76.76300 2337 ft 99 kts 17°
2026-04-26 21:27 18.00112 -76.76113 2495 ft 95 kts 16°
2026-04-26 21:27 18.00728 -76.75931 2657 ft 91 kts 17°
2026-04-26 21:27 18.01333 -76.75750 2804 ft 91 kts 17°
2026-04-26 21:27 18.01904 -76.75917 2917 ft 94 kts 297°
2026-04-26 21:28 18.02010 -76.76583 3062 ft 94 kts 278°
2026-04-26 21:28 18.02085 -76.77273 3193 ft 96 kts 276°
2026-04-26 21:28 18.02153 -76.77982 3318 ft 99 kts 276°
2026-04-26 21:28 18.02223 -76.78705 3442 ft 100 kts 276°
2026-04-26 21:29 18.02292 -76.79441 3568 ft 102 kts 276°
2026-04-26 21:29 18.02369 -76.80183 3689 ft 103 kts 282°
2026-04-26 21:29 18.02874 -76.80638 3812 ft 102 kts 354°
2026-04-26 21:29 18.03577 -76.80682 3936 ft 102 kts 18°
2026-04-26 21:30 18.04189 -76.80313 4068 ft 101 kts 32°
2026-04-26 21:30 18.04784 -76.79909 4193 ft 102 kts 33°
2026-04-26 21:30 18.05328 -76.79430 4318 ft 102 kts 43°
2026-04-26 21:30 18.05680 -76.79098 4400 ft 103 kts 43°
2026-04-26 21:31 18.06347 -76.78379 4570 ft 103 kts 49°
2026-04-26 21:31 18.06824 -76.77818 4693 ft 103 kts 49°
2026-04-26 21:31 18.07293 -76.77265 4811 ft 102 kts 49°
2026-04-26 21:31 18.07767 -76.76708 4929 ft 102 kts 49°
2026-04-26 21:32 18.08238 -76.76152 5048 ft 102 kts 49°
2026-04-26 21:32 18.08708 -76.75598 5170 ft 101 kts 49°
2026-04-26 21:32 18.09175 -76.75047 5288 ft 101 kts 49°
2026-04-26 21:32 18.09641 -76.74499 5406 ft 100 kts 49°
2026-04-26 21:33 18.10104 -76.73953 5529 ft 100 kts 49°
2026-04-26 21:33 18.10564 -76.73410 5648 ft 99 kts 49°
2026-04-26 21:33 18.11019 -76.72873 5766 ft 98 kts 49°
2026-04-26 21:33 18.11471 -76.72339 5890 ft 97 kts 49°
2026-04-26 21:34 18.11919 -76.71809 6011 ft 97 kts 48°
2026-04-26 21:34 18.12364 -76.71283 6132 ft 96 kts 48°
2026-04-26 21:34 18.12805 -76.70763 6253 ft 95 kts 48°
2026-04-26 21:34 18.13242 -76.70246 6371 ft 94 kts 48°
2026-04-26 21:35 18.13678 -76.69730 6465 ft 96 kts 48°
2026-04-26 21:35 18.14120 -76.69205 6562 ft 96 kts 49°
2026-04-26 21:35 18.14443 -76.68596 6659 ft 97 kts 72°
2026-04-26 21:35 18.14733 -76.67962 6748 ft 97 kts 53°
2026-04-26 21:36 18.15292 -76.67592 6839 ft 96 kts 27°
2026-04-26 21:36 18.15679 -76.67372 6903 ft 95 kts 26°
2026-04-26 21:36 18.16482 -76.66974 7029 ft 95 kts 24°
2026-04-26 21:36 18.17085 -76.66685 7119 ft 95 kts 23°
2026-04-26 21:37 18.17694 -76.66398 7174 ft 99 kts 23°
2026-04-26 21:37 18.18334 -76.66099 7229 ft 102 kts 23°
2026-04-26 21:37 18.18990 -76.65795 7284 ft 104 kts 23°
2026-04-26 21:37 18.19663 -76.65483 7340 ft 107 kts 23°
2026-04-26 21:38 18.20347 -76.65168 7391 ft 108 kts 22°
2026-04-26 21:38 18.21044 -76.64846 7448 ft 110 kts 22°
2026-04-26 21:38 18.21749 -76.64520 7495 ft 111 kts 23°
2026-04-26 21:38 18.22457 -76.64193 7545 ft 112 kts 23°
2026-04-26 21:39 18.23169 -76.63864 7598 ft 112 kts 23°
2026-04-26 21:39 18.23883 -76.63533 7647 ft 112 kts 22°
2026-04-26 21:39 18.24599 -76.63203 7695 ft 113 kts 22°
2026-04-26 21:39 18.25317 -76.62871 7745 ft 113 kts 22°
2026-04-26 21:40 18.26027 -76.62543 7790 ft 113 kts 22°
2026-04-26 21:40 18.26744 -76.62210 7837 ft 113 kts 23°
2026-04-26 21:40 18.27463 -76.61878 7886 ft 113 kts 22°
2026-04-26 21:40 18.28184 -76.61545 7933 ft 113 kts 22°
2026-04-26 21:41 18.28903 -76.61213 7984 ft 113 kts 21°
2026-04-26 21:41 18.29623 -76.60880 8034 ft 113 kts 22°
2026-04-26 21:41 18.30100 -76.60659 8064 ft 113 kts 23°
2026-04-26 21:41 18.30822 -76.60327 8116 ft 114 kts 21°
2026-04-26 21:42 18.31545 -76.59992 8162 ft 114 kts 21°
2026-04-26 21:42 18.32269 -76.59657 8211 ft 113 kts 20°
2026-04-26 21:42 18.32989 -76.59323 8260 ft 113 kts 21°
2026-04-26 21:42 18.33706 -76.58991 8308 ft 113 kts 21°
2026-04-26 21:43 18.34424 -76.58659 8356 ft 112 kts 20°
2026-04-26 21:43 18.35141 -76.58328 8408 ft 113 kts 21°
2026-04-26 21:43 18.35863 -76.57993 8459 ft 113 kts 21°
2026-04-26 21:43 18.36583 -76.57660 8505 ft 113 kts 20°
2026-04-26 21:44 18.37293 -76.57331 8547 ft 113 kts 21°
2026-04-26 21:44 18.38014 -76.56998 8595 ft 113 kts 21°
2026-04-26 21:44 18.38732 -76.56665 8644 ft 112 kts 20°
2026-04-26 21:44 18.39447 -76.56335 8694 ft 112 kts 21°
2026-04-26 21:45 18.40161 -76.56004 8743 ft 112 kts 21°
2026-04-26 21:45 18.40875 -76.55674 8792 ft 112 kts 20°
2026-04-26 21:45 18.41586 -76.55344 8841 ft 112 kts 21°
2026-04-26 21:45 18.42297 -76.55015 8891 ft 112 kts 21°
2026-04-26 21:46 18.43008 -76.54686 8940 ft 111 kts 21°
2026-04-26 21:46 18.43715 -76.54358 8996 ft 110 kts 21°
2026-04-26 21:46 18.44424 -76.54030 9003 ft 114 kts 21°
2026-04-26 21:46 18.45160 -76.53689 9008 ft 117 kts 21°
2026-04-26 21:47 18.45910 -76.53342 9012 ft 119 kts 21°
2026-04-26 21:47 18.46672 -76.52989 9011 ft 119 kts 21°
2026-04-26 21:47 18.47429 -76.52638 9008 ft 119 kts 20°
2026-04-26 21:47 18.48184 -76.52288 9008 ft 118 kts 21°
2026-04-26 21:48 18.48935 -76.51939 9005 ft 118 kts 21°
2026-04-26 21:48 18.49684 -76.51592 8997 ft 117 kts 21°
2026-04-26 21:48 18.50428 -76.51247 8997 ft 117 kts 20°
2026-04-26 21:48 18.51174 -76.50902 8997 ft 117 kts 20°
2026-04-26 21:49 18.51917 -76.50557 8998 ft 117 kts 21°
2026-04-26 21:49 18.52663 -76.50212 8995 ft 117 kts 21°
2026-04-26 21:49 18.53407 -76.49867 8994 ft 117 kts 21°
2026-04-26 21:49 18.54152 -76.49521 8995 ft 117 kts 21°
2026-04-26 21:50 18.54896 -76.49176 8997 ft 117 kts 21°
2026-04-26 21:50 18.55639 -76.48832 8996 ft 116 kts 21°
2026-04-26 21:50 18.56380 -76.48487 8996 ft 116 kts 21°
2026-04-26 21:50 18.57113 -76.48147 8997 ft 117 kts 20°
2026-04-26 21:51 18.57857 -76.47801 8997 ft 117 kts 20°
2026-04-26 21:51 18.58604 -76.47455 8997 ft 117 kts 20°
2026-04-26 21:51 18.59350 -76.47108 8997 ft 117 kts 20°
2026-04-26 21:51 18.60092 -76.46764 8996 ft 116 kts 21°
2026-04-26 21:52 18.60833 -76.46420 8997 ft 116 kts 20°
2026-04-26 21:52 18.61572 -76.46076 8999 ft 116 kts 20°
2026-04-26 21:52 18.62310 -76.45734 9000 ft 116 kts 22°
2026-04-26 21:52 18.63049 -76.45391 9001 ft 116 kts 21°
2026-04-26 21:53 18.63785 -76.45049 9002 ft 116 kts 21°
2026-04-26 21:53 18.64522 -76.44708 9001 ft 116 kts 21°
2026-04-26 21:53 18.65260 -76.44365 9001 ft 116 kts 21°
2026-04-26 21:53 18.65999 -76.44021 9003 ft 116 kts 21°
2026-04-26 21:54 18.66740 -76.43677 9003 ft 116 kts 21°
2026-04-26 21:54 18.67480 -76.43333 9003 ft 116 kts 21°
2026-04-26 21:54 18.68212 -76.42993 9004 ft 117 kts 21°
2026-04-26 21:54 18.68955 -76.42648 9004 ft 116 kts 21°
2026-04-26 21:55 18.69697 -76.42303 9006 ft 117 kts 21°
2026-04-26 21:55 18.70439 -76.41959 9006 ft 116 kts 21°
2026-04-26 21:55 18.71180 -76.41614 9006 ft 116 kts 21°
2026-04-26 21:55 18.71918 -76.41271 9005 ft 116 kts 20°
2026-04-26 21:56 18.72656 -76.40927 9001 ft 116 kts 21°
2026-04-26 21:56 18.73393 -76.40584 9001 ft 116 kts 21°
2026-04-26 21:56 18.74130 -76.40242 9002 ft 116 kts 21°
2026-04-26 21:56 18.74867 -76.39899 9002 ft 116 kts 21°
2026-04-26 21:57 18.75606 -76.39556 9005 ft 116 kts 21°
2026-04-26 21:57 18.76345 -76.39213 9005 ft 116 kts 21°
2026-04-26 21:57 18.77075 -76.38873 9005 ft 116 kts 21°
2026-04-26 21:57 18.77824 -76.38524 9006 ft 116 kts 21°
2026-04-26 21:58 18.78565 -76.38179 9006 ft 116 kts 21°
2026-04-26 21:58 18.79305 -76.37834 9006 ft 116 kts 21°
2026-04-26 21:58 18.80045 -76.37490 9006 ft 116 kts 21°
2026-04-26 21:58 18.80783 -76.37147 9005 ft 116 kts 21°
2026-04-26 21:59 18.81520 -76.36805 9005 ft 116 kts 21°
2026-04-26 21:59 18.82248 -76.36466 9005 ft 116 kts 21°
2026-04-26 21:59 18.82985 -76.36123 9005 ft 116 kts 21°
2026-04-26 21:59 18.83724 -76.35778 9007 ft 116 kts 21°
2026-04-26 22:00 18.84461 -76.35435 9007 ft 115 kts 20°
2026-04-26 22:00 18.85196 -76.35092 9006 ft 116 kts 21°
2026-04-26 22:00 18.85932 -76.34750 9009 ft 116 kts 21°
2026-04-26 22:00 18.86673 -76.34405 9008 ft 116 kts 21°
2026-04-26 22:01 18.87413 -76.34060 9009 ft 116 kts 21°
2026-04-26 22:01 18.88149 -76.33718 9009 ft 116 kts 21°
2026-04-26 22:01 18.88889 -76.33373 9012 ft 116 kts 21°
2026-04-26 22:01 18.89629 -76.33028 9012 ft 116 kts 21°
2026-04-26 22:02 18.90370 -76.32682 9012 ft 116 kts 21°
2026-04-26 22:02 18.91109 -76.32337 9011 ft 116 kts 21°
2026-04-26 22:02 18.91848 -76.31993 9011 ft 116 kts 21°
2026-04-26 22:02 18.92585 -76.31650 9010 ft 116 kts 21°
2026-04-26 22:03 18.93320 -76.31308 9010 ft 116 kts 21°
2026-04-26 22:03 18.94056 -76.30964 9010 ft 116 kts 21°
2026-04-26 22:03 18.94792 -76.30621 9008 ft 116 kts 20°
2026-04-26 22:03 18.95532 -76.30276 9007 ft 116 kts 20°
2026-04-26 22:04 18.96273 -76.29930 9006 ft 117 kts 20°
2026-04-26 22:04 18.97019 -76.29582 9006 ft 117 kts 20°
2026-04-26 22:04 18.97763 -76.29235 9006 ft 117 kts 20°
2026-04-26 22:04 18.98509 -76.28888 9007 ft 117 kts 20°
2026-04-26 22:05 18.99255 -76.28540 9009 ft 117 kts 20°
2026-04-26 22:05 19.00001 -76.28192 9010 ft 117 kts 20°
2026-04-26 22:05 19.00749 -76.27842 9010 ft 117 kts 20°
2026-04-26 22:05 19.01496 -76.27493 9013 ft 117 kts 20°
2026-04-26 22:06 19.02244 -76.27145 9016 ft 117 kts 20°
2026-04-26 22:06 19.02991 -76.26796 9016 ft 117 kts 20°
2026-04-26 22:06 19.03739 -76.26447 9016 ft 117 kts 20°
2026-04-26 22:06 19.04487 -76.26098 9017 ft 117 kts 20°
2026-04-26 22:07 19.05234 -76.25749 9015 ft 117 kts 20°
2026-04-26 22:07 19.05981 -76.25399 9014 ft 118 kts 20°
2026-04-26 22:07 19.06729 -76.25050 9015 ft 118 kts 20°
2026-04-26 22:07 19.07477 -76.24701 9014 ft 118 kts 20°
2026-04-26 22:08 19.08218 -76.24355 9014 ft 118 kts 20°
2026-04-26 22:08 19.08966 -76.24006 9014 ft 118 kts 20°
2026-04-26 22:08 19.09714 -76.23656 9015 ft 118 kts 20°
2026-04-26 22:08 19.10465 -76.23305 9016 ft 118 kts 20°
2026-04-26 22:09 19.11217 -76.22954 9014 ft 118 kts 20°
2026-04-26 22:09 19.11967 -76.22603 9016 ft 118 kts 20°
2026-04-26 22:09 19.12718 -76.22252 9016 ft 118 kts 20°
2026-04-26 22:09 19.13468 -76.21902 9015 ft 118 kts 20°
2026-04-26 22:10 19.14218 -76.21552 9015 ft 118 kts 20°
2026-04-26 22:10 19.14967 -76.21201 9016 ft 118 kts 20°
2026-04-26 22:10 19.15717 -76.20850 9016 ft 118 kts 20°
2026-04-26 22:10 19.16466 -76.20500 9015 ft 118 kts 20°
2026-04-26 22:11 19.17216 -76.20150 9014 ft 118 kts 20°
2026-04-26 22:11 19.17965 -76.19800 9014 ft 118 kts 20°
2026-04-26 22:11 19.18715 -76.19452 9015 ft 118 kts 20°
2026-04-26 22:11 19.19464 -76.19102 9016 ft 118 kts 20°
2026-04-26 22:12 19.20217 -76.18750 9017 ft 118 kts 20°
2026-04-26 22:12 19.20968 -76.18399 9017 ft 118 kts 20°
2026-04-26 22:12 19.21719 -76.18047 9016 ft 118 kts 20°
2026-04-26 22:12 19.22471 -76.17694 9017 ft 118 kts 20°
2026-04-26 22:13 19.23223 -76.17343 9016 ft 118 kts 20°
2026-04-26 22:13 19.23975 -76.16991 9017 ft 118 kts 21°
2026-04-26 22:13 19.24725 -76.16640 9016 ft 118 kts 20°
2026-04-26 22:13 19.25475 -76.16289 9015 ft 118 kts 20°
2026-04-26 22:14 19.26217 -76.15947 9013 ft 117 kts 15°
2026-04-26 22:14 19.27007 -76.15892 9022 ft 114 kts 358°
2026-04-26 22:14 19.27800 -76.15855 9018 ft 114 kts 359°
2026-04-26 22:14 19.28594 -76.15809 9016 ft 115 kts 360°
2026-04-26 22:15 19.29409 -76.15756 8924 ft 117 kts
2026-04-26 22:15 19.30211 -76.15700 8835 ft 113 kts
2026-04-26 22:15 19.30989 -76.15646 8781 ft 112 kts
2026-04-26 22:15 19.31771 -76.15591 8736 ft 113 kts
2026-04-26 22:16 19.32557 -76.15535 8683 ft 114 kts
2026-04-26 22:16 19.33349 -76.15478 8632 ft 114 kts
2026-04-26 22:16 19.34140 -76.15421 8584 ft 114 kts
2026-04-26 22:16 19.34933 -76.15364 8531 ft 114 kts
2026-04-26 22:17 19.35728 -76.15308 8492 ft 115 kts
2026-04-26 22:17 19.36525 -76.15251 8441 ft 115 kts
2026-04-26 22:17 19.37324 -76.15194 8411 ft 115 kts
2026-04-26 22:17 19.38129 -76.15137 8389 ft 117 kts
2026-04-26 22:18 19.38941 -76.15079 8363 ft 117 kts
2026-04-26 22:18 19.39759 -76.15021 8340 ft 118 kts
2026-04-26 22:18 19.40581 -76.14961 8316 ft 118 kts
2026-04-26 22:18 19.41392 -76.14903 8291 ft 119 kts
2026-04-26 22:19 19.42218 -76.14844 8266 ft 119 kts
2026-04-26 22:19 19.43043 -76.14786 8240 ft 119 kts
2026-04-26 22:19 19.43869 -76.14726 8218 ft 119 kts
2026-04-26 22:19 19.44696 -76.14667 8193 ft 119 kts
2026-04-26 22:20 19.45523 -76.14608 8168 ft 119 kts
2026-04-26 22:20 19.46076 -76.14568 8136 ft 121 kts
2026-04-26 22:20 19.47211 -76.14487 8050 ft 124 kts
2026-04-26 22:20 19.48075 -76.14425 7975 ft 125 kts
2026-04-26 22:21 19.48945 -76.14363 7900 ft 126 kts
2026-04-26 22:21 19.49821 -76.14300 7827 ft 127 kts
2026-04-26 22:21 19.50703 -76.14237 7755 ft 127 kts
2026-04-26 22:21 19.51588 -76.14173 7684 ft 127 kts
2026-04-26 22:22 19.52462 -76.14111 7615 ft 127 kts
2026-04-26 22:22 19.53348 -76.14047 7541 ft 127 kts
2026-04-26 22:22 19.54235 -76.13983 7470 ft 127 kts
2026-04-26 22:22 19.55120 -76.13920 7398 ft 127 kts
2026-04-26 22:23 19.56007 -76.13857 7326 ft 128 kts
2026-04-26 22:23 19.56892 -76.13793 7255 ft 128 kts
2026-04-26 22:23 19.57779 -76.13729 7187 ft 128 kts
2026-04-26 22:23 19.58669 -76.13666 7114 ft 128 kts
2026-04-26 22:24 19.59548 -76.13602 7046 ft 128 kts
2026-04-26 22:24 19.60434 -76.13539 6976 ft 128 kts
2026-04-26 22:24 19.61318 -76.13476 6905 ft 127 kts
2026-04-26 22:24 19.62201 -76.13412 6836 ft 127 kts
2026-04-26 22:25 19.63085 -76.13349 6765 ft 127 kts
2026-04-26 22:25 19.63968 -76.13285 6693 ft 127 kts
2026-04-26 22:25 19.64848 -76.13222 6623 ft 127 kts
2026-04-26 22:25 19.65727 -76.13159 6554 ft 126 kts
2026-04-26 22:26 19.66603 -76.13097 6481 ft 126 kts
2026-04-26 22:26 19.67480 -76.13034 6411 ft 126 kts
2026-04-26 22:26 19.68353 -76.12971 6342 ft 126 kts
2026-04-26 22:26 19.69231 -76.12908 6270 ft 126 kts
2026-04-26 22:27 19.70108 -76.12845 6199 ft 126 kts
2026-04-26 22:27 19.70688 -76.12803 6149 ft 126 kts
2026-04-26 22:27 19.71860 -76.12719 6053 ft 126 kts
2026-04-26 22:27 19.72724 -76.12657 5975 ft 126 kts
2026-04-26 22:28 19.73315 -76.12615 5921 ft 126 kts
2026-04-26 22:28 19.74478 -76.12531 5824 ft 126 kts
2026-04-26 22:28 19.75072 -76.12489 5777 ft 126 kts
2026-04-26 22:28 19.75934 -76.12426 5704 ft 126 kts
2026-04-26 22:29 19.76812 -76.12364 5643 ft 126 kts
2026-04-26 22:29 19.77680 -76.12301 5588 ft 124 kts
2026-04-26 22:29 19.78541 -76.12239 5539 ft 124 kts
2026-04-26 22:29 19.79404 -76.12177 5468 ft 125 kts
2026-04-26 22:30 19.80267 -76.12115 5397 ft 124 kts
2026-04-26 22:30 19.81133 -76.12053 5326 ft 125 kts
2026-04-26 22:30 19.82000 -76.11991 5273 ft 124 kts
2026-04-26 22:30 19.82862 -76.11928 5225 ft 124 kts
2026-04-26 22:31 19.83722 -76.11867 5181 ft 124 kts
2026-04-26 22:31 19.84584 -76.11805 5130 ft 124 kts
2026-04-26 22:31 19.85443 -76.11743 5080 ft 123 kts
2026-04-26 22:31 19.86298 -76.11681 5036 ft 123 kts
2026-04-26 22:32 19.87152 -76.11620 4982 ft 123 kts
2026-04-26 22:32 19.88003 -76.11559 4935 ft 123 kts
2026-04-26 22:32 19.88857 -76.11497 4885 ft 123 kts
2026-04-26 22:32 19.89715 -76.11435 4840 ft 123 kts
2026-04-26 22:33 19.90561 -76.11374 4796 ft 123 kts
2026-04-26 22:33 19.92276 -76.11251 4699 ft 123 kts
2026-04-26 22:33 19.93124 -76.11190 4651 ft 122 kts
2026-04-26 22:34 19.93970 -76.11129 4606 ft 122 kts
2026-04-26 22:34 19.94792 -76.10918 4550 ft 125 kts 29°
2026-04-26 22:34 19.95401 -76.10256 4465 ft 130 kts 59°
2026-04-26 22:34 19.95612 -76.09307 4328 ft 135 kts 87°
2026-04-26 22:35 19.95661 -76.08309 4178 ft 133 kts 86°
2026-04-26 22:35 19.95708 -76.07414 3993 ft 112 kts 86°
2026-04-26 22:35 19.95753 -76.06634 3808 ft 100 kts 85°
2026-04-26 22:35 19.95795 -76.05929 3631 ft 91 kts 86°
2026-04-26 22:36 19.95836 -76.05273 3411 ft 91 kts 85°
2026-04-26 22:36 19.95877 -76.04589 3166 ft 92 kts 86°
2026-04-26 22:36 19.95921 -76.03872 3063 ft 104 kts 86°
2026-04-26 22:36 19.95976 -76.03056 3017 ft 112 kts 85°
2026-04-26 22:37 19.96024 -76.02306 2993 ft 95 kts 87°
2026-04-26 22:37 19.96063 -76.01636 2997 ft 89 kts 87°
2026-04-26 22:37 19.96102 -76.00994 2991 ft 85 kts 88°
2026-04-26 22:37 19.96140 -76.00355 2932 ft 89 kts 88°
2026-04-26 22:38 19.96180 -75.99673 2842 ft 92 kts 88°
2026-04-26 22:38 19.96221 -75.98987 2706 ft 94 kts 89°
2026-04-26 22:38 19.96262 -75.98298 2580 ft 94 kts 90°
2026-04-26 22:38 19.96300 -75.97622 2447 ft 88 kts 90°
2026-04-26 22:39 19.96342 -75.96985 2334 ft 85 kts 93°
2026-04-26 22:39 19.96378 -75.96371 2209 ft 82 kts 95°
2026-04-26 22:39 19.96409 -75.95787 2126 ft 80 kts 90°
2026-04-26 22:39 19.96447 -75.95196 2025 ft 79 kts 91°
2026-04-26 22:40 19.96479 -75.94606 1924 ft 81 kts 88°
2026-04-26 22:40 19.96516 -75.93984 1830 ft 89 kts 91°
2026-04-26 22:40 19.96555 -75.93301 1727 ft 96 kts 90°
2026-04-26 22:40 19.96599 -75.92566 1593 ft 103 kts 89°
2026-04-26 22:41 19.96646 -75.91806 1463 ft 105 kts 91°
2026-04-26 22:41 19.96692 -75.91037 1336 ft 105 kts 89°
2026-04-26 22:41 19.96737 -75.90271 1205 ft 103 kts 91°
2026-04-26 22:41 19.96782 -75.89513 1079 ft 102 kts 92°
2026-04-26 22:42 19.96827 -75.88759 941 ft 102 kts 91°
2026-04-26 22:42 19.96869 -75.88024 808 ft 99 kts 89°
2026-04-26 22:42 19.96914 -75.87283 672 ft 99 kts 89°
2026-04-26 22:42 19.96959 -75.86561 549 ft 96 kts 90°
2026-04-26 22:43 19.96986 -75.85836 424 ft 99 kts 91°
2026-04-26 22:43 19.96975 -75.85148 259 ft 84 kts 89°
2026-04-26 22:43 19.96984 -75.84620 228 ft 56 kts 88°
2026-04-26 22:43 19.96988 -75.84276 229 ft 27 kts 92°
2026-04-26 22:44 19.96987 -75.84181 231 ft 9 kts 81°
2026-04-26 22:44 19.97013 -75.84135 231 ft 7 kts 36°
2026-04-26 22:44 19.97074 -75.84090 231 ft 15 kts 46°
2026-04-26 22:44 19.97171 -75.84050 229 ft 6 kts
2026-04-26 22:45 19.97175 -75.84050 229 ft 0 kts